sat.trackr.live / text

‹ back to catalog

STARLINK-5699

NORAD 55449 · 2023-015A

PAYLOAD ACTIVE UNKNOWN

§ Identity

Operator
Country
US
Launch date
2023-02-02
Launch site
AFETR
Launch vehicle
Mass (kg)
RCS (m²)

Purposes: comms

External: N2YO · Heavens-Above · Gunter

§ Orbital elements

Epoch: 2026-09-20T10:40:11.350848Z

Period
94.27 min
Inclination
43.0041°
Eccentricity
0.0001112
Mean motion
15.27573354 rev/d
Perigee alt
482.3 km
Apogee alt
483.8 km
Semi-major
6,861.2 km
B*
-1.0696e-5
RAAN
309.1659°
Arg perigee
301.9876°
Mean anomaly
58.0868°
Rev number
20,144

§ Raw data

STARLINK-56991 55449U 23015A   26263.44457582 -.00000556  00000+0 -10696-4 0  99992 55449  43.0041 309.1659 0001112 301.9876  58.0868 15.27573354201441

JSON: /api/v1/satellites/55449 · /tle

For live sub-satellite position, see the globe view (requires WebGL).

§ Visibility from observer

Set your observer location to see the next 7 days of passes ≥ 10°. The values pass through the URL so the page stays shareable.

No JS? Fill the form by hand. The geolocation button needs JavaScript.